EW5286 Weather Reports


Display with metric or nautical units.
time (UTC)temp
F
wind
direction
speed
MPH
gust
MPH
rain 1hr
in
rain 24hr
in
rain mn
in
humidity
%
barometer
mb
20260507195434 69 52 1.0 3.0 0.00 0.06 0.00 59 1015.6
20260507194942 69 50 1.0 3.0 0.00 0.06 0.00 62 1015.7
20260507194543 67 8 0.0 1.0 0.00 0.06 0.00 66 1015.7
20260507194423 67 75 0.0 1.0 0.00 0.06 0.00 66 1015.8
20260507193934 66 75 0.0 3.0 0.00 0.06 0.00 60 1015.9
20260507193427 66 52 2.0 3.0 0.00 0.06 0.00 61 1016.1
20260507193055 65 58 1.0 3.0 0.00 0.06 0.00 66 1016.1
20260507192928 66 54 1.0 3.0 0.00 0.06 0.00 63 1016.1
20260507192438 67 46 1.0 2.0 0.00 0.06 0.00 61 1016.1
20260507191929 66 65 1.0 2.0 0.00 0.06 0.00 57 1016.1
20260507191537 66 44 1.0 2.0 0.00 0.06 0.00 57 1016.2
20260507191440 67 35 1.0 3.0 0.00 0.06 0.00 56 1016.2
20260507190922 66 24 1.0 3.0 0.00 0.06 0.00 60 1016.2
20260507190428 67 184 1.0 3.0 0.00 0.06 0.00 61 1016.2
20260507190023 66 58 1.0 3.0 0.00 0.06 0.00 61 1016.2
20260507185936 67 13 1.0 2.0 0.00 0.17 0.00 63 1016.2
20260507185448 66 257 0.0 3.0 0.00 0.17 0.00 65 1016.3
20260507184931 66 53 2.0 3.0 0.00 0.17 0.00 61 1016.4
20260507184530 65 49 0.0 2.0 0.00 0.17 0.00 61 1016.5
20260507184441 66 49 1.0 2.0 0.00 0.17 0.00 61 1016.4
20260507183949 65 54 1.0 2.0 0.00 0.17 0.00 58 1016.5
20260507183432 65 21 1.0 2.0 0.00 0.17 0.00 58 1016.7
20260507183039 65 70 0.0 2.0 0.00 0.17 0.00 62 1016.8
20260507182942 66 70 0.0 2.0 0.00 0.17 0.00 60 1016.7
20260507182443 67 70 1.0 5.0 0.00 0.17 0.00 60 1016.8
20260507181934 67 209 2.0 5.0 0.00 0.17 0.00 55 1016.8
20260507181520 66 48 0.0 3.0 0.00 0.17 0.00 52 1017.0
20260507181422 67 47 1.0 3.0 0.00 0.17 0.00 52 1016.9
20260507180934 67 262 1.0 3.0 0.00 0.17 0.00 63 1017.0
20260507180445 65 34 1.0 4.0 0.00 0.17 0.00 57 1017.1
20260507180007 65 345 1.0 4.0 0.00 0.17 0.00 55 1017.2
20260507175944 66 51 1.0 3.0 0.00 0.26 0.00 53 1017.2
20260507175435 66 68 1.0 2.0 0.00 0.26 0.00 59 1017.3
20260507174928 65 276 1.0 3.0 0.00 0.26 0.00 70 1017.4
20260507174604 64 275 0.0 4.0 0.00 0.26 0.00 65 1017.6
20260507174429 64 263 2.0 4.0 0.00 0.26 0.00 63 1017.5
20260507173939 64 288 1.0 4.0 0.00 0.26 0.00 60 1017.5
20260507173510 64 27 1.0 4.0 0.00 0.26 0.00 61 1017.5
20260507173103 64 56 1.0 4.0 0.00 0.26 0.00 57 1017.6
20260507172931 65 68 1.0 4.0 0.00 0.26 0.00 62 1017.6
20260507172422 64 68 1.0 4.0 0.00 0.26 0.00 62 1017.6
20260507171926 64 131 2.0 3.0 0.00 0.26 0.00 64 1017.8
20260507171505 64 63 0.0 2.0 0.00 0.26 0.00 64 1018.0
20260507171436 64 56 1.0 2.0 0.00 0.26 0.00 64 1017.8
20260507170927 63 58 1.0 3.0 0.00 0.26 0.00 63 1017.9
20260507170430 63 47 1.0 5.0 0.00 0.26 0.00 63 1017.9
20260507170016 63 29 2.0 5.0 0.00 0.26 0.00 56 1018.2
20260507165940 63 47 2.0 5.0 0.00 0.27 0.00 63 1018.0
20260507165434 64 64 1.0 2.0 0.00 0.27 0.00 67 1018.1
20260507164935 64 340 1.0 3.0 0.00 0.27 0.00 61 1018.1
20260507164522 63 54 0.0 3.0 0.00 0.27 0.00 61 1018.3
20260507164425 63 56 1.0 4.0 0.00 0.27 0.00 60 1018.2
20260507163928 62 58 1.0 4.0 0.00 0.27 0.00 67 1018.2
20260507163455 62 61 1.0 4.0 0.00 0.27 0.00 64 1018.3
20260507163007 61 51 1.0 4.0 0.00 0.27 0.00 66 1018.5
20260507162923 62 58 2.0 4.0 0.00 0.27 0.00 65 1018.3
20260507162455 62 65 2.0 4.0 0.00 0.27 0.00 65 1018.3
20260507161945 62 56 1.0 3.0 0.00 0.27 0.00 64 1018.4
20260507161606 61 32 0.0 1.0 0.00 0.27 0.00 69 1018.6
20260507161426 62 19 0.0 1.0 0.00 0.27 0.00 66 1018.5
20260507160956 62 23 0.0 1.0 0.00 0.27 0.00 65 1018.5
20260507160428 61 44 0.0 1.0 0.00 0.27 0.00 70 1018.6
20260507160045 60 40 0.0 1.0 0.00 0.27 0.00 70 1018.6
20260507155937 61 40 0.0 1.0 0.00 0.27 0.00 73 1018.5
20260507155448 60 8 0.0 2.0 0.00 0.27 0.00 69 1018.6
20260507154931 60 352 0.0 2.0 0.00 0.27 0.00 76 1018.6
20260507154536 60 47 0.0 1.0 0.00 0.27 0.00 79 1018.7
20260507154441 60 44 0.0 1.0 0.00 0.27 0.00 79 1018.5
20260507153953 59 30 0.0 2.0 0.00 0.27 0.00 70 1018.5
20260507153433 59 101 1.0 2.0 0.00 0.27 0.00 76 1018.5
20260507153019 58 38 0.0 2.0 0.00 0.27 0.00 78 1018.8
20260507152943 59 38 0.0 2.0 0.00 0.27 0.00 77 1018.6
20260507152430 58 57 1.0 2.0 0.00 0.27 0.00 83 1018.6
20260507152001 58 53 0.0 2.0 0.00 0.27 0.00 80 1018.6
20260507151548 57 20 0.0 2.0 0.00 0.27 0.00 79 1018.8
20260507151421 58 53 1.0 2.0 0.00 0.27 0.00 80 1018.6
20260507150933 58 63 0.0 2.0 0.00 0.27 0.00 82 1018.5
20260507150444 57 23 0.0 1.0 0.00 0.27 0.00 85 1018.5
20260507150104 56 37 0.0 1.0 0.00 0.27 0.00 82 1018.8
20260507145924 57 37 0.0 1.0 0.00 0.27 0.00 82 1018.6
20260507145435 56 49 0.0 2.0 0.00 0.27 0.00 85 1018.5
20260507144947 56 53 0.0 2.0 0.00 0.27 0.00 87 1018.3
20260507144600 55 34 0.0 2.0 0.00 0.27 0.00 87 1018.6
20260507144425 55 49 0.0 2.0 0.00 0.27 0.00 88 1018.5
20260507143936 55 37 1.0 2.0 0.00 0.27 0.00 87 1018.5
20260507143448 55 70 1.0 2.0 0.00 0.27 0.00 88 1018.5
20260507143006 54 79 0.0 3.0 0.00 0.27 0.00 90 1018.6
20260507142928 54 55 0.0 3.0 0.00 0.27 0.00 90 1018.4
20260507142440 54 57 1.0 3.0 0.00 0.27 0.00 90 1018.3
20260507141951 54 53 0.0 4.0 0.00 0.27 0.00 90 1018.3
20260507141511 53 52 0.0 4.0 0.00 0.27 0.00 90 1018.6
20260507141432 53 52 1.0 4.0 0.00 0.27 0.00 90 1018.4
20260507140943 53 59 1.0 3.0 0.00 0.27 0.00 91 1018.4
20260507140456 53 58 0.0 1.0 0.00 0.27 0.00 90 1018.3
20260507135932 53 60 0.0 3.0 0.00 0.27 0.00 90 1018.2
20260507135423 52 59 1.0 3.0 0.00 0.27 0.00 92 1018.1
20260507134926 52 57 1.0 3.0 0.00 0.27 0.00 92 1018.1
20260507134521 51 56 1.0 4.0 0.00 0.27 0.00 94 1018.3
20260507134436 52 56 1.0 4.0 0.00 0.27 0.00 94 1018.1
20260507133928 52 62 1.0 4.0 0.00 0.27 0.00 93 1018.0
20260507133431 51 54 2.0 4.0 0.00 0.27 0.00 93 1018.1
20260507133014 51 60 0.0 4.0 0.00 0.27 0.00 94 1018.2
20260507132921 51 56 1.0 4.0 0.00 0.27 0.00 95 1018.0
20260507132423 51 74 2.0 4.0 0.00 0.27 0.00 96 1018.0
20260507131942 51 61 2.0 4.0 0.00 0.27 0.00 96 1018.0
20260507131627 50 43 1.0 4.0 0.00 0.27 0.00 96 1018.3
20260507131422 51 65 1.0 4.0 0.00 0.27 0.00 97 1018.0
20260507130933 50 65 1.0 3.0 0.00 0.27 0.00 96 1017.9
20260507130444 50 81 1.0 3.0 0.00 0.27 0.00 97 1017.7
20260507130054 49 55 1.0 3.0 0.00 0.27 0.00 97 1017.9
20260507125924 50 56 2.0 3.0 0.00 0.58 0.00 97 1017.7
20260507125435 50 60 1.0 2.0 0.00 0.58 0.00 97 1017.5
20260507124948 50 49 1.0 3.0 0.00 0.58 0.00 97 1017.4
20260507124537 49 61 0.0 3.0 0.00 0.57 0.00 97 1017.5
20260507124437 49 63 1.0 3.0 0.00 0.58 0.00 97 1017.4
20260507123936 49 58 2.0 3.0 0.00 0.58 0.00 97 1017.5
20260507123447 49 49 2.0 3.0 0.00 0.58 0.00 97 1017.7
20260507123025 49 54 1.0 3.0 0.00 0.57 0.00 98 1018.0
20260507122935 49 60 1.0 3.0 0.00 0.58 0.00 98 1017.9
20260507122447 49 58 1.0 3.0 0.00 0.58 0.00 98 1017.9
20260507121929 49 58 1.0 3.0 0.00 0.58 0.00 98 1017.7
20260507121532 48 61 1.0 3.0 0.00 0.57 0.00 98 1017.8
20260507121439 49 57 1.0 3.0 0.00 0.58 0.00 98 1017.6
20260507120951 49 57 2.0 3.0 0.00 0.58 0.00 98 1017.5
20260507120431 48 54 1.0 3.0 0.00 0.58 0.00 98 1017.5
20260507120016 48 69 1.0 3.0 0.00 0.57 0.00 98 1017.6
20260507115940 48 37 2.0 3.0 0.00 0.77 0.00 98 1017.3
20260507115451 48 63 2.0 3.0 0.00 0.77 0.00 98 1017.4
20260507114922 48 53 1.0 3.0 0.00 0.77 0.00 98 1017.3
20260507114548 48 63 1.0 3.0 0.00 0.77 0.00 98 1017.3
20260507114423 48 62 2.0 3.0 0.00 0.77 0.00 98 1017.1
20260507113935 48 61 1.0 4.0 0.00 0.77 0.00 98 1017.1
20260507113427 48 49 1.0 4.0 0.00 0.77 0.00 98 1017.0
20260507113054 48 56 1.0 3.0 0.00 0.77 0.00 98 1017.3
20260507112927 48 49 1.0 3.0 0.00 0.77 0.00 98 1017.1
20260507112434 48 54 1.0 3.0 0.00 0.77 0.00 97 1016.9
20260507111946 48 56 1.0 3.0 0.00 0.77 0.00 98 1016.9
20260507111540 48 54 1.0 3.0 0.00 0.77 0.00 98 1017.0
20260507111424 49 60 1.0 3.0 0.00 0.77 0.00 98 1016.7
20260507110936 49 53 2.0 3.0 0.00 0.77 0.00 98 1016.5
20260507110428 49 59 2.0 3.0 0.00 0.77 0.00 98 1016.7
20260507105929 49 60 1.0 2.0 0.00 1.01 0.00 98 1016.7
20260507105421 49 49 1.0 2.0 0.00 1.01 0.00 98 1016.6
20260507104932 49 58 1.0 3.0 0.00 1.01 0.00 98 1016.6
20260507104556 48 51 1.0 3.0 0.00 1.01 0.00 97 1016.6
20260507104433 49 56 1.0 3.0 0.00 1.01 0.00 98 1016.4
20260507103924 49 60 1.0 3.0 0.00 1.01 0.00 97 1016.5
20260507103436 49 54 1.0 2.0 0.00 1.01 0.00 97 1016.6
20260507103103 49 47 0.0 2.0 0.00 1.01 0.00 97 1016.8
20260507102937 49 58 1.0 2.0 0.00 1.01 0.00 97 1016.5
20260507102429 50 63 1.0 2.0 0.00 1.01 0.00 98 1016.4
20260507101943 50 53 1.0 2.0 0.00 1.01 0.00 98 1016.3
20260507101515 49 56 0.0 2.0 0.00 1.01 0.00 98 1016.4
20260507101424 50 56 1.0 2.0 0.00 1.01 0.00 98 1016.2
20260507100935 50 57 2.0 2.0 0.00 1.01 0.00 98 1016.1
20260507100437 50 53 2.0 2.0 0.00 1.01 0.00 98 1016.2
20260507100013 49 55 0.0 2.0 0.00 1.01 0.00 97 1016.5
20260507095927 50 54 0.0 2.0 0.00 1.02 0.00 97 1016.3
20260507095439 50 54 1.0 2.0 0.00 1.02 0.00 98 1016.2
20260507094937 50 52 0.0 1.0 0.00 1.02 0.00 97 1016.1
20260507094521 50 53 0.0 1.0 0.00 1.02 0.00 98 1016.1
20260507094427 50 53 1.0 1.0 0.00 1.02 0.00 98 1015.9
20260507093930 50 53 0.0 1.0 0.00 1.02 0.00 98 1015.8
20260507093442 50 53 0.0 2.0 0.00 1.02 0.00 97 1016.1
20260507093030 50 53 0.0 2.0 0.00 1.02 0.00 97 1016.4
20260507092932 50 53 1.0 2.0 0.00 1.02 0.00 98 1016.2
20260507092504 50 54 1.0 2.0 0.00 1.02 0.00 97 1016.3
20260507091926 50 56 1.0 2.0 0.00 1.02 0.00 98 1016.2
20260507091518 50 55 0.0 2.0 0.00 1.02 0.00 97 1016.4
20260507091456 51 55 1.0 2.0 0.00 1.02 0.00 98 1016.2
20260507090926 51 56 1.0 2.0 0.00 1.02 0.00 97 1016.3
20260507090428 51 56 1.0 2.0 0.00 1.02 0.00 97 1016.3
20260507090006 50 57 0.0 2.0 0.00 1.02 0.00 97 1016.6
20260507085939 51 57 1.0 2.0 0.00 1.18 0.00 97 1016.3
20260507085430 51 57 1.0 2.0 0.00 1.18 0.00 98 1016.3
20260507084941 51 58 1.0 2.0 0.00 1.18 0.00 98 1016.4
20260507084558 51 58 0.0 1.0 0.00 1.18 0.00 97 1016.6
20260507084421 51 58 0.0 1.0 0.00 1.18 0.00 98 1016.4
20260507083933 51 58 0.0 1.0 0.00 1.18 0.00 97 1016.2
20260507083445 51 58 0.0 1.0 0.00 1.18 0.00 97 1016.1
20260507083103 51 58 0.0 1.0 0.00 1.18 0.00 97 1016.3
20260507083010 51 58 0.0 1.0 0.00 1.18 0.00 97 1016.1
20260507082432 51 58 0.0 1.0 0.00 1.18 0.00 97 1016.0
20260507081925 51 58 0.0 1.0 0.00 1.18 0.00 98 1015.9
20260507081551 51 58 0.0 1.0 0.00 1.18 0.00 98 1016.1
20260507081426 52 58 0.0 1.0 0.00 1.18 0.00 98 1015.9
20260507080937 51 58 0.0 1.0 0.00 1.18 0.00 98 1015.9
20260507080450 51 58 1.0 1.0 0.00 1.18 0.00 98 1015.9
20260507080100 51 58 0.0 1.0 0.00 1.18 0.00 98 1016.1
20260507075930 52 58 1.0 1.0 0.00 1.19 0.00 98 1016.0
20260507075422 52 58 1.0 1.0 0.00 1.19 0.00 98 1016.0
20260507074925 52 58 1.0 1.0 0.00 1.19 0.00 98 1015.9
20260507074512 51 58 0.0 1.0 0.00 1.19 0.00 98 1016.2
20260507074435 52 58 0.0 1.0 0.00 1.19 0.00 98 1016.0
20260507073946 51 58 0.0 1.0 0.00 1.19 0.00 98 1016.1
20260507073433 51 58 0.0 1.0 0.00 1.19 0.00 98 1016.1
20260507073051 51 58 0.0 1.0 0.00 1.19 0.00 98 1016.3
20260507072933 51 58 0.0 1.0 0.00 1.19 0.00 98 1016.1
20260507072424 52 58 0.0 1.0 0.00 1.19 0.00 98 1016.1
20260507071937 52 58 0.0 1.0 0.00 1.19 0.00 98 1016.1
20260507071601 51 58 0.0 1.0 0.00 1.19 0.00 98 1016.2
20260507071438 52 58 1.0 1.0 0.00 1.19 0.00 98 1016.0
20260507070930 52 58 0.0 1.0 0.00 1.19 0.00 98 1016.0
20260507070441 52 58 0.0 1.0 0.00 1.19 0.00 98 1016.0
20260507070010 51 58 0.0 1.0 0.00 1.19 0.00 98 1016.1
20260507065922 52 58 0.0 1.0 0.00 1.79 0.00 98 1016.0
20260507065430 52 58 0.0 1.0 0.00 1.79 0.00 98 1016.0
20260507064933 52 58 0.0 1.0 0.00 1.79 0.00 98 1016.0
20260507064512 51 58 0.0 1.0 0.00 1.79 0.00 98 1016.2
20260507064423 52 58 0.0 1.0 0.00 1.79 0.00 98 1016.0
20260507063934 52 58 0.0 1.0 0.00 1.79 0.00 98 1016.1
20260507063438 52 58 0.0 0.0 0.00 1.79 0.00 98 1016.1
20260507063022 51 58 0.0 1.0 0.00 1.79 0.00 98 1016.3
20260507062928 52 58 0.0 1.0 0.00 1.79 0.00 98 1016.1
20260507062438 52 58 0.0 1.0 0.00 1.79 0.00 98 1016.1
20260507061940 52 58 0.0 1.0 0.00 1.79 0.00 98 1016.2
20260507061527 51 58 0.0 1.0 0.00 1.79 0.00 98 1016.3
20260507061430 52 58 0.0 1.0 0.00 1.79 0.00 98 1016.2
20260507060933 52 58 0.0 1.0 0.00 1.79 0.00 98 1016.2
20260507060425 52 58 0.0 1.0 0.00 1.79 0.00 98 1016.3
20260507060041 51 58 0.0 0.0 0.00 1.79 0.00 98 1016.5
20260507055935 52 58 0.0 0.0 0.00 1.79 0.00 98 1016.4
20260507055438 52 58 0.0 1.0 0.00 1.79 0.00 98 1016.3
20260507054930 52 58 0.0 1.0 0.00 1.79 0.00 98 1016.3
20260507054547 52 58 0.0 1.0 0.00 1.79 0.00 98 1016.3
20260507054440 52 58 0.0 1.0 0.00 1.79 0.00 98 1016.3
20260507053921 52 58 0.0 1.0 0.00 1.79 0.00 98 1016.2
20260507053453 52 58 0.0 0.0 0.00 1.79 0.00 98 1016.2
20260507053029 52 58 0.0 1.0 0.00 1.79 0.00 98 1016.3
20260507052942 52 58 0.0 1.0 0.00 1.79 0.00 98 1016.1
20260507052424 52 58 0.0 1.0 0.00 1.79 0.00 98 1016.1
20260507051932 52 58 0.0 1.0 0.00 1.79 0.00 98 1016.1
20260507051541 51 58 0.0 1.0 0.00 1.79 0.00 98 1016.2
20260507051422 52 58 1.0 1.0 0.00 1.79 0.00 98 1016.1
20260507050924 52 58 0.0 1.0 0.00 1.79 0.00 98 1016.2
20260507050436 52 58 0.0 1.0 0.00 1.79 0.00 98 1016.2
20260507050025 51 58 0.0 1.0 0.00 1.79 0.00 98 1016.2
20260507045946 52 58 0.0 1.0 0.00 1.79 1.79 98 1016.2
20260507045436 52 58 0.0 2.0 0.00 1.79 1.79 98 1016.1
20260507044949 52 58 0.0 2.0 0.00 1.79 1.79 98 1016.0
20260507044512 51 56 0.0 2.0 0.00 1.79 1.79 98 1016.1
20260507044429 52 57 1.0 2.0 0.00 1.79 1.79 98 1016.0
20260507043941 52 57 1.0 2.0 0.00 1.79 1.79 98 1016.1
20260507043423 52 57 1.0 2.0 0.00 1.79 1.79 98 1016.1
20260507043015 51 59 0.0 2.0 0.00 1.79 1.79 98 1016.1
20260507042929 52 59 1.0 2.0 0.00 1.79 1.79 98 1016.1
20260507042441 52 60 0.0 2.0 0.00 1.79 1.79 98 1016.0
20260507041923 52 58 1.0 2.0 0.00 1.79 1.79 98 1016.0
20260507041523 51 58 0.0 0.0 0.00 1.79 1.79 98 1016.1
20260507041433 52 58 0.0 0.0 0.00 1.79 1.79 98 1016.1
20260507040944 52 58 0.0 0.0 0.00 1.79 1.79 98 1016.1
20260507040428 52 58 0.0 1.0 0.00 1.79 1.79 98 1016.1
20260507040033 51 58 0.0 1.0 0.00 1.79 1.79 98 1016.1
20260507035937 52 58 0.0 1.0 0.00 1.79 1.79 98 1016.1
20260507035421 51 58 1.0 1.0 0.00 1.79 1.79 98 1015.9
20260507034928 51 59 0.0 1.0 0.00 1.79 1.79 98 1015.9
20260507034553 51 59 0.0 2.0 0.00 1.79 1.79 98 1015.9
20260507034437 51 59 0.0 2.0 0.00 1.79 1.79 98 1015.9
20260507033920 51 59 0.0 2.0 0.00 1.79 1.79 98 1015.7
20260507033433 51 59 0.0 2.0 0.00 1.79 1.79 98 1015.9
20260507033048 51 59 0.0 2.0 0.00 1.79 1.79 98 1015.7
20260507032943 51 59 0.0 2.0 0.00 1.79 1.79 98 1015.6
20260507032443 51 53 1.0 2.0 0.00 1.79 1.79 98 1015.6
20260507031932 51 52 1.0 1.0 0.00 1.79 1.79 98 1015.6
20260507031512 51 52 0.0 2.0 0.00 1.79 1.79 98 1015.6
20260507031421 51 51 0.0 2.0 0.00 1.79 1.79 98 1015.6
20260507030933 51 56 1.0 2.0 0.00 1.79 1.79 98 1015.5
20260507030505 51 59 1.0 2.0 0.00 1.79 1.79 98 1015.5
20260507025945 51 59 1.0 1.0 0.00 1.79 1.79 98 1015.5
20260507025444 51 59 0.0 1.0 0.00 1.79 1.79 98 1015.6
20260507024950 51 59 0.0 2.0 0.00 1.79 1.79 98 1015.5
20260507024508 51 59 0.0 2.0 0.00 1.79 1.79 98 1015.3
20260507024431 51 59 1.0 2.0 0.00 1.79 1.79 98 1015.3
20260507023942 51 60 0.0 3.0 0.00 1.79 1.79 98 1015.2
20260507023425 51 61 1.0 3.0 0.00 1.79 1.79 98 1015.0
20260507023017 51 60 1.0 3.0 0.00 1.79 1.79 98 1015.0
20260507022935 51 60 1.0 3.0 0.00 1.79 1.79 98 1015.0
20260507022427 51 52 0.0 2.0 0.00 1.79 1.79 98 1015.3
20260507021929 51 52 1.0 2.0 0.00 1.79 1.79 98 1015.1
20260507021607 50 55 0.0 1.0 0.00 1.79 1.79 98 1015.1
20260507021508 51 55 0.0 1.0 0.00 1.79 1.79 98 1015.3
20260507020930 51 55 0.0 2.0 0.00 1.79 1.79 98 1015.3
20260507020441 51 55 0.0 3.0 0.00 1.79 1.79 98 1015.0
20260507020057 50 56 0.0 3.0 0.00 1.79 1.79 98 1014.7
20260507015931 51 62 2.0 3.0 0.00 1.79 1.79 98 1014.7
20260507015433 51 57 0.0 1.0 0.00 1.79 1.79 98 1014.9
20260507014925 51 61 0.0 2.0 0.00 1.79 1.79 98 1015.0
20260507014545 50 59 0.0 2.0 0.00 1.79 1.79 98 1014.8
20260507014455 51 60 0.0 2.0 0.00 1.79 1.79 98 1014.9
20260507013943 51 60 1.0 2.0 0.00 1.79 1.79 98 1014.7
20260507013424 51 57 0.0 4.0 0.00 1.79 1.79 98 1014.5
20260507013029 51 54 1.0 3.0 0.00 1.79 1.79 98 1014.3
20260507012936 51 68 1.0 3.0 0.00 1.79 1.79 98 1014.4
20260507012439 51 59 1.0 3.0 0.00 1.79 1.79 98 1014.4
20260507011930 51 64 1.0 4.0 0.00 1.79 1.79 98 1014.2
20260507011543 51 53 1.0 4.0 0.00 1.79 1.79 98 1014.0
20260507011500 51 53 1.0 4.0 0.00 1.79 1.79 98 1014.0
20260507010921 51 54 2.0 5.0 0.00 1.79 1.79 98 1013.9
20260507010433 51 55 2.0 5.0 0.00 1.79 1.79 98 1013.6
20260507010025 51 39 2.0 5.0 0.00 1.79 1.79 98 1013.3
20260507005923 51 34 2.0 5.0 0.00 1.79 1.79 98 1013.4
20260507005426 51 46 2.0 5.0 0.00 1.79 1.79 98 1013.6
20260507004938 51 63 2.0 5.0 0.00 1.79 1.79 98 1013.5
20260507004534 51 66 1.0 3.0 0.00 1.79 1.79 98 1013.6
20260507004427 51 59 1.0 3.0 0.00 1.79 1.79 98 1013.8
20260507003959 51 60 1.0 3.0 0.00 1.79 1.79 98 1014.0
20260507003450 51 60 0.0 3.0 0.00 1.79 1.79 98 1014.4
20260507003105 51 54 0.0 3.0 0.00 1.79 1.79 98 1014.3
20260507002959 51 58 0.0 2.0 0.00 1.79 1.79 98 1014.5
20260507002436 52 57 0.0 2.0 0.00 1.79 1.79 98 1014.4
20260507001928 52 54 0.0 2.0 0.00 1.79 1.79 98 1014.4
20260507001556 51 56 0.0 2.0 0.00 1.79 1.79 98 1014.3
20260507001429 51 56 0.0 2.0 0.00 1.79 1.79 98 1014.4
20260507000921 51 54 0.0 1.0 0.00 1.79 1.79 98 1014.5
20260507000435 51 54 1.0 1.0 0.00 1.79 1.79 98 1014.6
20260507000106 51 54 0.0 2.0 0.00 1.79 1.79 98 1014.5
20260507000003 52 54 0.0 2.0 0.00 1.79 1.79 98 1014.6
20260506235425 52 54 1.0 2.0 0.00 1.79 1.79 98 1014.4
20260506234937 52 56 1.0 2.0 0.00 1.79 1.79 98 1014.6
20260506234548 51 56 0.0 1.0 0.00 1.79 1.79 98 1014.5
20260506234447 52 56 0.0 2.0 0.00 1.79 1.79 98 1014.6
20260506233929 52 56 0.0 2.0 0.00 1.79 1.79 98 1014.7
20260506233501 51 55 0.0 3.0 0.00 1.79 1.79 98 1014.7
20260506233036 51 55 0.0 3.0 0.00 1.79 1.79 98 1014.5
20260506232930 51 55 0.0 3.0 0.00 1.79 1.79 98 1014.6
20260506232439 51 53 1.0 2.0 0.00 1.79 1.79 98 1014.5
20260506231921 51 54 1.0 2.0 0.00 1.79 1.79 98 1014.4
20260506231522 51 68 0.0 3.0 0.00 1.79 1.79 98 1014.4
20260506231432 51 68 0.0 3.0 0.00 1.79 1.79 98 1014.5
20260506230943 51 56 0.0 4.0 0.00 1.79 1.79 98 1014.3
20260506230425 51 66 1.0 4.0 0.00 1.79 1.79 98 1014.4
20260506230029 51 57 1.0 3.0 0.00 1.79 1.79 98 1014.3
20260506225931 51 57 1.0 3.0 0.00 1.79 1.79 98 1014.4
20260506225503 51 57 1.0 3.0 0.00 1.79 1.79 98 1014.2
20260506224924 51 51 1.0 3.0 0.00 1.79 1.79 98 1014.4
20260506224515 50 68 0.0 3.0 0.00 1.79 1.79 98 1014.3
20260506224434 51 69 1.0 3.0 0.00 1.79 1.79 98 1014.5
20260506223946 51 53 1.0 3.0 0.00 1.79 1.79 98 1014.3
20260506223424 51 58 1.0 3.0 0.00 1.79 1.79 98 1014.1
20260506223018 51 53 0.0 2.0 0.00 1.79 1.79 98 1014.0
20260506222934 51 58 1.0 2.0 0.00 1.79 1.79 98 1014.3
20260506222446 51 58 0.0 2.0 0.00 1.79 1.79 98 1014.3
20260506221928 51 58 0.0 5.0 0.00 1.79 1.79 98 1013.7
20260506221526 50 111 1.0 5.0 0.00 1.79 1.79 98 1013.1
20260506221438 51 59 1.0 5.0 0.00 1.79 1.79 98 1013.3
20260506220921 51 52 1.0 5.0 0.00 1.79 1.79 98 1013.5
20260506220432 51 72 2.0 5.0 0.00 1.79 1.79 98 1013.5
20260506220014 50 45 0.0 5.0 0.00 1.79 1.79 98 1013.5
20260506215941 51 56 0.0 5.0 0.00 1.79 1.79 98 1013.7
20260506215432 51 60 2.0 5.0 0.00 1.79 1.79 98 1013.6
20260506214943 51 81 2.0 5.0 0.00 1.79 1.79 98 1013.8
20260506214611 50 57 1.0 5.0 0.00 1.79 1.79 98 1013.4
20260506214424 51 64 1.0 5.0 0.00 1.79 1.79 98 1013.6
20260506213952 51 67 1.0 7.0 0.00 1.79 1.79 98 1013.4
20260506213502 51 66 2.0 7.0 0.00 1.79 1.79 98 1013.5
20260506213032 50 53 2.0 6.0 0.00 1.79 1.79 98 1013.3
20260506212931 51 13 1.0 6.0 0.00 1.79 1.79 98 1013.5
20260506212503 51 51 2.0 6.0 0.00 1.79 1.79 98 1013.3
20260506211954 51 64 2.0 6.0 0.00 1.79 1.79 98 1013.2
20260506211601 50 73 2.0 6.0 0.00 1.79 1.79 98 1012.8
20260506211503 51 30 2.0 6.0 0.00 1.79 1.79 98 1013.0
20260506210923 51 74 2.0 6.0 0.00 1.79 1.79 98 1013.3
20260506210434 51 58 2.0 6.0 0.00 1.79 1.79 98 1013.6
20260506210025 50 70 2.0 6.0 0.00 1.79 1.79 98 1013.5
20260506205923 51 29 3.0 6.0 0.00 1.79 1.79 98 1013.9
20260506205426 51 82 2.0 5.0 0.00 1.79 1.79 98 1013.9
20260506204938 51 41 2.0 6.0 0.00 1.79 1.79 98 1013.7
20260506204533 51 13 1.0 6.0 0.00 1.79 1.79 98 1012.9
20260506204422 51 53 3.0 6.0 0.00 1.79 1.79 98 1013.1
20260506203933 51 78 2.0 5.0 0.00 1.79 1.79 98 1013.0
20260506203506 51 58 2.0 7.0 0.01 1.79 1.79 98 1013.2
20260506203105 50 72 1.0 7.0 0.01 1.79 1.79 98 1013.2
20260506202925 51 51 1.0 7.0 0.01 1.79 1.79 98 1013.4
20260506202438 51 67 2.0 6.0 0.01 1.79 1.79 98 1013.3
20260506201948 50 62 1.0 6.0 0.02 1.79 1.79 98 1013.5
20260506201508 50 75 1.0 5.0 0.02 1.79 1.79 98 1013.4
20260506201429 50 50 2.0 5.0 0.02 1.79 1.79 98 1013.8
20260506200940 50 72 2.0 6.0 0.02 1.79 1.79 98 1013.7
20260506200432 50 63 2.0 7.0 0.04 1.79 1.79 98 1013.6
20260506200057 49 345 1.0 7.0 0.05 1.79 1.79 98 1013.5
20260506195933 50 84 2.0 7.0 0.06 1.79 1.79 98 1013.8